JZA8116 KPDX-CYVR

Flight info

Callsign JZA8116
Flight time 0h 51m
Altitude 30000
Route BTG J1 SEA DCT PAE GRIZZ9
Aircraft CRJ9/M-SDFGIRWY/S

Departure

Time 2026-05-04 04:18
Airport Portland International Airport (KPDX)

Arrival

Time 2026-05-04 05:09
Airport Vancouver International Airport (CYVR)
Time Latitude Longitude Altitude Speed Heading
2026-05-04 03:55 45.58950 -122.59635 31 ft 0 kts 208°
2026-05-04 04:05 45.58956 -122.59629 19 ft 3 kts 208°
2026-05-04 04:05 45.58975 -122.59615 30 ft 2 kts 210°
2026-05-04 04:06 45.58993 -122.59592 29 ft 1 kts 238°
2026-05-04 04:06 45.58994 -122.59591 29 ft 1 kts 252°
2026-05-04 04:06 45.58997 -122.59565 29 ft 3 kts 280°
2026-05-04 04:06 45.58997 -122.59560 29 ft 6 kts 289°
2026-05-04 04:07 45.59022 -122.59639 28 ft 10 kts 300°
2026-05-04 04:07 45.59061 -122.59732 28 ft 12 kts 298°
2026-05-04 04:07 45.59100 -122.59834 28 ft 11 kts 300°
2026-05-04 04:07 45.59133 -122.59925 27 ft 10 kts 286°
2026-05-04 04:08 45.59133 -122.59929 27 ft 0 kts 285°
2026-05-04 04:09 45.59136 -122.59947 27 ft 5 kts 279°
2026-05-04 04:09 45.59132 -122.60034 28 ft 10 kts 247°
2026-05-04 04:09 45.59091 -122.60101 28 ft 8 kts 213°
2026-05-04 04:10 45.59039 -122.60143 28 ft 9 kts 209°
2026-05-04 04:10 45.58988 -122.60175 29 ft 6 kts 193°
2026-05-04 04:10 45.58979 -122.60177 30 ft 0 kts 183°
2026-05-04 04:10 45.58973 -122.60176 30 ft 5 kts 171°
2026-05-04 04:11 45.58943 -122.60140 31 ft 8 kts 124°
2026-05-04 04:11 45.58918 -122.60081 32 ft 7 kts 120°
2026-05-04 04:11 45.58890 -122.60011 32 ft 10 kts 120°
2026-05-04 04:11 45.58851 -122.59909 32 ft 13 kts 117°
2026-05-04 04:12 45.58806 -122.59783 34 ft 15 kts 117°
2026-05-04 04:12 45.58757 -122.59651 34 ft 16 kts 117°
2026-05-04 04:12 45.58704 -122.59504 33 ft 18 kts 117°
2026-05-04 04:12 45.58696 -122.59484 33 ft 0 kts 117°
2026-05-04 04:14 45.58689 -122.59469 33 ft 5 kts 134°
2026-05-04 04:14 45.58622 -122.59366 32 ft 23 kts 130°
2026-05-04 04:14 45.58482 -122.59116 29 ft 38 kts 129°
2026-05-04 04:14 45.58355 -122.58848 31 ft 26 kts 119°
2026-05-04 04:15 45.58263 -122.58613 31 ft 28 kts 119°
2026-05-04 04:15 45.58195 -122.58438 29 ft 20 kts 119°
2026-05-04 04:15 45.58150 -122.58365 28 ft 0 kts 171°
2026-05-04 04:16 45.58112 -122.58368 28 ft 13 kts 198°
2026-05-04 04:17 45.58079 -122.58448 31 ft 8 kts 281°
2026-05-04 04:17 45.58176 -122.58712 35 ft 69 kts 299°
2026-05-04 04:17 45.58546 -122.59658 36 ft 144 kts 299°
2026-05-04 04:17 45.59090 -122.61034 312 ft 162 kts 300°
2026-05-04 04:18 45.59609 -122.62479 613 ft 170 kts 296°
2026-05-04 04:18 45.60138 -122.64061 676 ft 189 kts 295°
2026-05-04 04:18 45.60711 -122.65880 752 ft 206 kts 294°
2026-05-04 04:18 45.61284 -122.67787 844 ft 216 kts 295°
2026-05-04 04:19 45.61907 -122.69835 982 ft 241 kts 295°
2026-05-04 04:19 45.62562 -122.72056 2237 ft 238 kts 295°
2026-05-04 04:19 45.63202 -122.74188 3733 ft 229 kts 302°
2026-05-04 04:19 45.64209 -122.75972 4837 ft 235 kts 314°
2026-05-04 04:20 45.65345 -122.77694 5853 ft 242 kts 308°
2026-05-04 04:20 45.65940 -122.79914 6831 ft 244 kts 271°
2026-05-04 04:20 45.66018 -122.82347 7779 ft 248 kts 287°
2026-05-04 04:20 45.66984 -122.84334 8738 ft 250 kts 326°
2026-05-04 04:21 45.68631 -122.85048 9684 ft 251 kts
2026-05-04 04:21 45.70273 -122.84226 10445 ft 258 kts 40°
2026-05-04 04:21 45.71290 -122.82151 11253 ft 260 kts 75°
2026-05-04 04:21 45.71311 -122.79581 12038 ft 263 kts 103°
2026-05-04 04:22 45.70845 -122.77070 12849 ft 265 kts 105°
2026-05-04 04:22 45.70426 -122.74503 13712 ft 265 kts 98°
2026-05-04 04:22 45.70310 -122.71853 14421 ft 267 kts 86°
2026-05-04 04:22 45.70626 -122.69237 15042 ft 271 kts 72°
2026-05-04 04:23 45.71355 -122.66743 15740 ft 273 kts 61°
2026-05-04 04:23 45.72346 -122.64412 16417 ft 275 kts 56°
2026-05-04 04:23 45.73402 -122.62148 17094 ft 277 kts 56°
2026-05-04 04:23 45.74470 -122.59834 17766 ft 279 kts 56°
2026-05-04 04:24 45.75703 -122.57687 18308 ft 282 kts 36°
2026-05-04 04:24 45.77564 -122.56609 18374 ft 306 kts
2026-05-04 04:24 45.79734 -122.57072 18446 ft 331 kts 337°
2026-05-04 04:24 45.81545 -122.58924 18543 ft 353 kts 313°
2026-05-04 04:25 45.82946 -122.61939 18674 ft 373 kts 303°
2026-05-04 04:25 45.84694 -122.64756 18711 ft 387 kts 326°
2026-05-04 04:25 45.87186 -122.66326 18775 ft 400 kts 350°
2026-05-04 04:25 45.89994 -122.66382 18855 ft 412 kts
2026-05-04 04:26 45.92823 -122.65578 19291 ft 415 kts 16°
2026-05-04 04:26 45.95404 -122.63753 19762 ft 416 kts 38°
2026-05-04 04:26 45.97301 -122.60696 20221 ft 420 kts 59°
2026-05-04 04:26 45.98284 -122.56747 20684 ft 424 kts 81°
2026-05-04 04:27 45.98224 -122.52488 21094 ft 430 kts 96°
2026-05-04 04:27 45.98171 -122.48541 21413 ft 429 kts 79°
2026-05-04 04:27 45.99198 -122.44553 21805 ft 428 kts 57°
2026-05-04 04:27 46.01195 -122.41413 22191 ft 429 kts 36°
2026-05-04 04:28 46.03871 -122.39543 22622 ft 431 kts 15°
2026-05-04 04:28 46.06746 -122.39192 23001 ft 436 kts 355°
2026-05-04 04:28 46.09687 -122.40372 23192 ft 447 kts 335°
2026-05-04 04:28 46.12304 -122.42905 23311 ft 457 kts 326°
2026-05-04 04:29 46.14966 -122.45403 23690 ft 456 kts 330°
2026-05-04 04:29 46.17697 -122.47726 24079 ft 454 kts 334°
2026-05-04 04:29 46.20660 -122.49150 24423 ft 448 kts 353°
2026-05-04 04:29 46.23712 -122.49535 24792 ft 445 kts 358°
2026-05-04 04:30 46.26801 -122.49905 25173 ft 444 kts 358°
2026-05-04 04:30 46.29714 -122.50153 25523 ft 443 kts 357°
2026-05-04 04:30 46.32738 -122.50543 25925 ft 441 kts 358°
2026-05-04 04:30 46.35796 -122.50444 26323 ft 437 kts
2026-05-04 04:31 46.38799 -122.49783 26637 ft 436 kts 11°
2026-05-04 04:31 46.41762 -122.48795 26978 ft 434 kts 19°
2026-05-04 04:31 46.44628 -122.47465 27293 ft 433 kts 16°
2026-05-04 04:31 46.47608 -122.46757 27624 ft 433 kts
2026-05-04 04:32 46.50624 -122.46546 27907 ft 436 kts
2026-05-04 04:32 46.52639 -122.46528 27969 ft 439 kts
2026-05-04 04:32 46.58628 -122.46106 28070 ft 447 kts
2026-05-04 04:33 46.64782 -122.44342 28103 ft 447 kts 15°
2026-05-04 04:33 46.67758 -122.43285 28088 ft 432 kts 15°
2026-05-04 04:33 46.70656 -122.42339 28066 ft 421 kts
2026-05-04 04:34 46.76323 -122.41829 28060 ft 403 kts
2026-05-04 04:34 46.81672 -122.41595 28065 ft 386 kts
2026-05-04 04:35 46.86938 -122.40702 28065 ft 373 kts
2026-05-04 04:35 46.92118 -122.39705 28106 ft 383 kts
2026-05-04 04:36 46.97482 -122.38779 28124 ft 393 kts
2026-05-04 04:36 47.02826 -122.37875 28128 ft 401 kts
2026-05-04 04:37 47.11281 -122.36433 28097 ft 413 kts
2026-05-04 04:37 47.14144 -122.35945 28095 ft 416 kts
2026-05-04 04:38 47.19946 -122.34950 28098 ft 422 kts
2026-05-04 04:38 47.25704 -122.33965 28092 ft 428 kts
2026-05-04 04:39 47.31569 -122.32958 28106 ft 432 kts
2026-05-04 04:39 47.37583 -122.31936 28111 ft 437 kts
2026-05-04 04:40 47.43654 -122.30900 28106 ft 441 kts
2026-05-04 04:40 47.49688 -122.30477 28089 ft 444 kts
2026-05-04 04:41 47.55782 -122.30223 28078 ft 440 kts
2026-05-04 04:41 47.61763 -122.29830 28073 ft 422 kts
2026-05-04 04:42 47.67498 -122.29456 28074 ft 408 kts
2026-05-04 04:42 47.73072 -122.29082 28074 ft 396 kts
2026-05-04 04:43 47.78309 -122.29056 28080 ft 381 kts 357°
2026-05-04 04:43 47.80903 -122.29279 26748 ft 377 kts 356°
2026-05-04 04:43 47.83567 -122.29741 24960 ft 390 kts 353°
2026-05-04 04:44 47.86315 -122.30316 22921 ft 406 kts 352°
2026-05-04 04:44 47.89143 -122.30925 21236 ft 409 kts 352°
2026-05-04 04:44 47.91929 -122.31530 19861 ft 402 kts 352°
2026-05-04 04:44 47.94679 -122.32122 18498 ft 397 kts 352°
2026-05-04 04:45 47.97262 -122.32668 17166 ft 392 kts 352°
2026-05-04 04:45 47.99933 -122.33232 15839 ft 384 kts 352°
2026-05-04 04:45 48.02521 -122.33778 14580 ft 377 kts 352°
2026-05-04 04:47 48.17906 -122.37134 11707 ft 384 kts 352°
2026-05-04 04:47 48.20454 -122.37703 11710 ft 389 kts 352°
2026-05-04 04:47 48.23055 -122.38283 11712 ft 393 kts 352°
2026-05-04 04:47 48.25771 -122.38889 11719 ft 396 kts 352°
2026-05-04 04:48 48.28449 -122.39485 11712 ft 379 kts 352°
2026-05-04 04:49 48.38463 -122.42621 11692 ft 363 kts 344°
2026-05-04 04:49 48.40905 -122.43594 11694 ft 361 kts 348°
2026-05-04 04:49 48.43362 -122.44310 11696 ft 359 kts 351°
2026-05-04 04:49 48.45689 -122.44843 11697 ft 357 kts 352°
2026-05-04 04:50 48.48143 -122.45374 11697 ft 355 kts 352°
2026-05-04 04:50 48.50586 -122.45916 11696 ft 354 kts 352°
2026-05-04 04:50 48.52997 -122.46453 11702 ft 353 kts 352°
2026-05-04 04:50 48.55407 -122.46988 11700 ft 352 kts 352°
2026-05-04 04:51 48.57795 -122.47521 11699 ft 351 kts 352°
2026-05-04 04:51 48.60209 -122.48057 11697 ft 351 kts 352°
2026-05-04 04:51 48.62637 -122.48592 11700 ft 357 kts 352°
2026-05-04 04:51 48.65127 -122.49139 11702 ft 364 kts 352°
2026-05-04 04:52 48.67510 -122.49661 11706 ft 369 kts 352°
2026-05-04 04:52 48.70074 -122.50222 11703 ft 374 kts 352°
2026-05-04 04:52 48.72671 -122.50789 11705 ft 378 kts 352°
2026-05-04 04:52 48.75296 -122.51364 11703 ft 382 kts 352°
2026-05-04 04:53 48.77657 -122.52342 11473 ft 367 kts 339°
2026-05-04 04:53 48.79739 -122.54375 10235 ft 359 kts 316°
2026-05-04 04:53 48.81117 -122.57384 9605 ft 340 kts 294°
2026-05-04 04:53 48.81802 -122.60864 9320 ft 348 kts 285°
2026-05-04 04:54 48.82342 -122.64411 9203 ft 350 kts 283°
2026-05-04 04:54 48.82842 -122.68030 9170 ft 349 kts 283°
2026-05-04 04:54 48.83307 -122.71572 8644 ft 335 kts 282°
2026-05-04 04:54 48.83732 -122.74904 8333 ft 316 kts 282°
2026-05-04 04:55 48.84131 -122.78079 8184 ft 295 kts 282°
2026-05-04 04:55 48.84506 -122.81037 8034 ft 278 kts 282°
2026-05-04 04:55 48.84961 -122.83790 7890 ft 260 kts 297°
2026-05-04 04:55 48.86111 -122.85697 7833 ft 236 kts 334°
2026-05-04 04:56 48.87512 -122.86777 7834 ft 227 kts 334°
2026-05-04 04:56 48.88825 -122.87908 7828 ft 226 kts 332°
2026-05-04 04:56 48.90124 -122.89143 7832 ft 226 kts 335°
2026-05-04 04:56 48.91596 -122.89523 7822 ft 217 kts 17°
2026-05-04 04:57 48.92832 -122.88395 7942 ft 200 kts 43°
2026-05-04 04:57 48.93787 -122.87204 8124 ft 172 kts 39°
2026-05-04 04:57 48.94710 -122.86121 7423 ft 186 kts 39°
2026-05-04 04:57 48.95815 -122.84838 6435 ft 211 kts 39°
2026-05-04 04:58 48.96983 -122.83350 5431 ft 227 kts 50°
2026-05-04 04:58 48.97936 -122.81356 4473 ft 237 kts 55°
2026-05-04 04:58 48.98854 -122.79274 3718 ft 235 kts 56°
2026-05-04 04:58 48.99734 -122.77184 3261 ft 235 kts 56°
2026-05-04 04:59 49.00588 -122.75102 3047 ft 226 kts 57°
2026-05-04 04:59 49.01395 -122.73109 2936 ft 216 kts 57°
2026-05-04 04:59 49.02212 -122.71254 2859 ft 206 kts 45°
2026-05-04 04:59 49.03399 -122.70175 2832 ft 195 kts 24°
2026-05-04 05:00 49.04553 -122.69305 2867 ft 176 kts 25°
2026-05-04 05:00 49.05611 -122.68529 2846 ft 162 kts 21°
2026-05-04 05:00 49.07636 -122.67297 2826 ft 152 kts 18°
2026-05-04 05:01 49.08642 -122.66997 2753 ft 147 kts 348°
2026-05-04 05:01 49.09413 -122.67933 2654 ft 141 kts 304°
2026-05-04 05:01 49.10013 -122.69130 2775 ft 144 kts 309°
2026-05-04 05:01 49.10655 -122.70357 2834 ft 152 kts 309°
2026-05-04 05:02 49.11331 -122.71649 2869 ft 160 kts 309°
2026-05-04 05:02 49.12037 -122.73001 2878 ft 165 kts 309°
2026-05-04 05:02 49.12710 -122.74423 2863 ft 167 kts 296°
2026-05-04 05:02 49.13001 -122.76132 2846 ft 167 kts 291°
2026-05-04 05:03 49.13478 -122.77643 2851 ft 165 kts 295°
2026-05-04 05:03 49.13924 -122.79261 2844 ft 166 kts 290°
2026-05-04 05:04 49.14735 -122.84350 2864 ft 161 kts 282°
2026-05-04 05:04 49.14945 -122.85999 2854 ft 157 kts 281°
2026-05-04 05:04 49.15132 -122.87495 2840 ft 155 kts 281°
2026-05-04 05:06 49.16504 -122.99065 2173 ft 168 kts 281°
2026-05-04 05:06 49.16698 -123.00768 1950 ft 161 kts 281°
2026-05-04 05:06 49.16887 -123.02420 1748 ft 154 kts 281°
2026-05-04 05:07 49.17072 -123.04014 1584 ft 153 kts 281°
2026-05-04 05:07 49.17261 -123.05633 1366 ft 156 kts 281°
2026-05-04 05:07 49.17450 -123.07284 1163 ft 159 kts 281°
2026-05-04 05:09 49.18706 -123.18100 19 ft 41 kts 279°
2026-05-04 05:09 49.18753 -123.18479 16 ft 31 kts 293°
2026-05-04 05:10 49.18838 -123.18740 15 ft 23 kts 329°
2026-05-04 05:10 49.18961 -123.18833 17 ft 15 kts
2026-05-04 05:10 49.18992 -123.18759 17 ft 11 kts 102°
2026-05-04 05:10 49.18976 -123.18627 19 ft 14 kts 99°
2026-05-04 05:11 49.18972 -123.18513 16 ft 5 kts 54°
2026-05-04 05:11 49.19010 -123.18504 16 ft 11 kts 336°
2026-05-04 05:11 49.19086 -123.18603 17 ft 19 kts 320°
2026-05-04 05:11 49.19187 -123.18715 16 ft 35 kts 323°
2026-05-04 05:12 49.19299 -123.18729 18 ft 22 kts 41°
2026-05-04 05:12 49.19388 -123.18681 17 ft 12 kts 24°
2026-05-04 05:12 49.19432 -123.18598 16 ft 8 kts 48°
2026-05-04 05:12 49.19494 -123.18491 16 ft 0 kts 58°